Weather History for Boonville, MO

Change the Weather History Date:

Sunday, December 30, 2012

  Actual Average Record
Temperature  
Mean Temperature 33 °F -  
Max Temperature 44 °F 36 °F 65 °F (2010)
Min Temperature 22 °F 21 °F -2 °F (1983)
Degree Days  
Heating Degree Days 32    
Moisture  
Dew Point 19 °F    
Average Humidity 54    
Maximum Humidity 76    
Minimum Humidity 36    
Precipitation  
Precipitation 0.00 in - - ()
Sea Level Pressure  
Sea Level Pressure 30.28 in    
Wind  
Wind Speed 6 mph (SSW)    
Max Wind Speed 13 mph    
Max Gust Speed 18 mph    
Visibility 10 miles    
Events      
Averages and records for this station are not official NWS values.
T = Trace of Precipitation, MM = Missing Value Source: NWS Daily Summary

Daily Weather History Graph

Daily Weather History Graph

Search for Another Location

Airport:

Trip Planner

Search our weather history database for the weather conditions in past years. The results will help you decide how hot, cold, wet, or windy it might be!

Date:

Astronomy

Dec. 30, 2012 Rise Set
Actual Time 7:29 AM CST 4:58 PM CST
Civil Twilight 6:59 AM CST 5:27 PM CST
Nautical Twilight 6:25 AM CST 6:01 PM CST
Astronomical Twilight 5:53 AM CST 6:33 PM CST
Moon 7:28 PM CST (12/30) 8:39 AM CST (12/30)
Length of Visible Light 10h 28m
Length of Day
9h 28m
Waning Gibbous, 95% of the Moon is Illuminated
Dec 30
Waning Gibbous
Jan 4
Last Quarter
Jan 11
New
Jan 18
First Quarter
Jan 26
Full

Hourly Weather History & Observations

Time (CST) Temp. Windchill Dew Point Humidity Pressure Visibility Wind Dir Wind Speed Gust Speed Precip Events Conditions
12:15 AM 22.3 °F 16.1 °F 15.8 °F 76% 30.30 in 10.0 mi SSW 4.6 mph - N/A   Clear
12:35 AM 22.3 °F 16.1 °F 15.8 °F 76% 30.32 in 10.0 mi SSW 4.6 mph - N/A   Clear
12:55 AM 23.5 °F 16.4 °F 16.3 °F 74% 30.32 in 10.0 mi SSW 5.8 mph - N/A   Clear
1:15 AM 24.4 °F 17.5 °F 16.5 °F 72% 30.32 in 10.0 mi SSW 5.8 mph - N/A   Clear
1:35 AM 25.2 °F 19.5 °F 16.7 °F 70% 30.33 in 10.0 mi SSW 4.6 mph - N/A   Clear
1:55 AM 25.7 °F 19.0 °F 16.9 °F 69% 30.33 in 10.0 mi SSW 5.8 mph - N/A   Clear
2:15 AM 26.1 °F 20.5 °F 17.2 °F 69% 30.34 in 10.0 mi SSW 4.6 mph - N/A   Clear
2:35 AM 26.4 °F 20.9 °F 17.4 °F 69% 30.36 in 10.0 mi SSW 4.6 mph - N/A   Clear
2:55 AM 26.4 °F 22.4 °F 17.4 °F 69% 30.35 in 10.0 mi SSW 3.5 mph - N/A   Clear
3:15 AM 26.8 °F - 17.4 °F 68% 30.34 in 10.0 mi Calm Calm - N/A   Clear
3:35 AM 26.6 °F 21.2 °F 17.2 °F 68% 30.34 in 10.0 mi SW 4.6 mph - N/A   Clear
3:55 AM 25.9 °F 20.3 °F 17.1 °F 69% 30.34 in 10.0 mi SSW 4.6 mph - N/A   Clear
4:15 AM 25.5 °F 18.7 °F 16.9 °F 70% 30.35 in 10.0 mi SSW 5.8 mph - N/A   Clear
4:35 AM 25.7 °F 19.0 °F 17.1 °F 70% 30.34 in 10.0 mi SSW 5.8 mph - N/A   Clear
4:55 AM 25.7 °F 21.5 °F 17.1 °F 70% 30.34 in 10.0 mi SSW 3.5 mph - N/A   Clear
5:15 AM 25.7 °F 21.5 °F 16.9 °F 69% 30.34 in 10.0 mi SSW 3.5 mph - N/A   Clear
5:35 AM 25.2 °F 20.9 °F 16.7 °F 70% 30.34 in 10.0 mi SSW 3.5 mph - N/A   Clear
5:55 AM 24.8 °F 19.1 °F 16.7 °F 71% 30.34 in 10.0 mi SSW 4.6 mph - N/A   Clear
6:15 AM 25.0 °F - 16.7 °F 71% 30.34 in 10.0 mi Calm Calm - N/A   Clear
6:55 AM 24.6 °F 20.3 °F 16.7 °F 72% 30.35 in 10.0 mi South 3.5 mph - N/A   Clear
7:15 AM 24.6 °F 18.8 °F 16.7 °F 72% 30.35 in 10.0 mi SSW 4.6 mph - N/A   Clear
7:35 AM 25.0 °F 19.3 °F 16.7 °F 71% 30.36 in 10.0 mi South 4.6 mph - N/A   Clear
7:55 AM 25.0 °F 19.3 °F 17.1 °F 72% 30.36 in 10.0 mi South 4.6 mph - N/A   Clear
8:15 AM 25.9 °F 20.3 °F 17.8 °F 71% 30.36 in 10.0 mi South 4.6 mph - N/A   Clear
8:35 AM 27.5 °F 23.6 °F 19.0 °F 71% 30.36 in 10.0 mi South 3.5 mph - N/A   Clear
8:55 AM 28.9 °F 23.9 °F 19.9 °F 69% 30.37 in 10.0 mi South 4.6 mph - N/A   Clear
9:15 AM 30.7 °F 26.0 °F 20.8 °F 67% 30.36 in 10.0 mi SSW 4.6 mph - N/A   Clear
9:35 AM 32.0 °F 28.7 °F 21.4 °F 65% 30.36 in 10.0 mi SSW 3.5 mph - N/A   Clear
9:55 AM 33.4 °F 29.1 °F 21.9 °F 63% 30.36 in 10.0 mi SSW 4.6 mph - N/A   Clear
10:15 AM 35.1 °F 28.6 °F 22.3 °F 60% 30.37 in 10.0 mi SSW 8.1 mph - N/A   Clear
10:35 AM 36.9 °F 30.7 °F 22.5 °F 56% 30.38 in 10.0 mi SW 8.1 mph - N/A   Clear
10:55 AM 38.1 °F 32.9 °F 22.6 °F 54% 30.36 in 10.0 mi SSW 6.9 mph - N/A   Unknown
11:15 AM 39.6 °F 35.4 °F 23.4 °F 52% 30.36 in 10.0 mi SSW 5.8 mph - N/A   Unknown
11:35 AM 40.5 °F 37.3 °F 23.5 °F 51% 30.34 in 10.0 mi SW 4.6 mph - N/A   Unknown
11:55 AM 41.4 °F 36.8 °F 22.5 °F 47% 30.31 in 10.0 mi SSW 6.9 mph - N/A   Unknown
12:15 PM 41.9 °F 36.9 °F 21.7 °F 45% 30.30 in 10.0 mi SW 8.1 mph - N/A   Clear
12:35 PM 42.4 °F 38.1 °F 20.7 °F 42% 30.28 in 10.0 mi SSW 6.9 mph - N/A   Clear
12:55 PM 43.3 °F 38.6 °F 20.8 °F 41% 30.27 in 10.0 mi South 8.1 mph - N/A   Clear
1:15 PM 43.9 °F 38.3 °F 20.1 °F 39% 30.27 in 10.0 mi South 10.4 mph 17.3 mph N/A   Clear
1:35 PM 44.2 °F 38.4 °F 19.4 °F 37% 30.26 in 10.0 mi SW 11.5 mph 18.4 mph N/A   Clear
1:55 PM 44.4 °F 38.2 °F 19.6 °F 37% 30.26 in 10.0 mi South 12.7 mph 18.4 mph N/A   Clear
2:15 PM 44.2 °F 38.4 °F 18.9 °F 36% 30.25 in 10.0 mi South 11.5 mph 17.3 mph N/A   Clear
2:35 PM 44.2 °F 39.7 °F 19.6 °F 37% 30.25 in 10.0 mi South 8.1 mph - N/A   Clear
2:55 PM 43.9 °F 39.9 °F 20.1 °F 39% 30.25 in 10.0 mi SSW 6.9 mph - N/A   Clear
3:15 PM 44.6 °F 39.7 °F 19.2 °F 36% 30.24 in 10.0 mi South 9.2 mph - N/A   Clear
3:35 PM 44.2 °F 39.2 °F 18.9 °F 36% 30.24 in 10.0 mi South 9.2 mph - N/A   Clear
3:55 PM 43.5 °F 38.9 °F 18.1 °F 36% 30.23 in 10.0 mi South 8.1 mph - N/A   Clear
4:15 PM 42.8 °F 37.5 °F 18.0 °F 37% 30.22 in 10.0 mi South 9.2 mph - N/A   Clear
4:35 PM 41.9 °F 37.5 °F 17.6 °F 38% 30.23 in 10.0 mi South 6.9 mph - N/A   Clear
4:55 PM 41.0 °F 35.2 °F 18.3 °F 40% 30.22 in 10.0 mi South 9.2 mph - N/A   Clear
5:15 PM 39.7 °F 33.2 °F 19.0 °F 43% 30.20 in 10.0 mi SSE 10.4 mph - N/A   Clear
5:35 PM 39.4 °F - 19.0 °F 44% 30.20 in 10.0 mi Calm Calm - N/A   Clear
5:55 PM 38.8 °F 33.2 °F 19.0 °F 45% 30.20 in 10.0 mi South 8.1 mph - N/A   Clear
6:15 PM 39.0 °F 32.8 °F 18.7 °F 44% 30.20 in 10.0 mi South 9.2 mph - N/A   Clear
6:35 PM 38.5 °F 31.6 °F 19.2 °F 46% 30.19 in 10.0 mi SSE 10.4 mph - N/A   Clear
6:55 PM 38.8 °F 32.1 °F 18.3 °F 44% 30.18 in 10.0 mi South 10.4 mph - N/A   Clear
7:15 PM 38.5 °F 32.1 °F 18.1 °F 44% 30.18 in 10.0 mi South 9.2 mph - N/A   Clear
7:35 PM 38.5 °F 31.6 °F 17.8 °F 43% 30.18 in 10.0 mi South 10.4 mph - N/A   Clear
7:55 PM 39.4 °F 33.2 °F 17.2 °F 41% 30.18 in 10.0 mi South 9.2 mph - N/A   Clear
8:15 PM 39.4 °F 33.8 °F 17.4 °F 41% 30.17 in 10.0 mi South 8.1 mph - N/A   Clear
8:35 PM 39.4 °F 33.8 °F 17.6 °F 41% 30.17 in 10.0 mi South 8.1 mph - N/A   Clear
8:55 PM 39.4 °F 33.8 °F 17.6 °F 41% 30.17 in 10.0 mi South 8.1 mph - N/A   Clear
9:15 PM 39.4 °F 33.8 °F 17.8 °F 42% 30.16 in 10.0 mi South 8.1 mph - N/A   Clear
9:35 PM 39.2 °F 33.0 °F 18.0 °F 42% 30.17 in 10.0 mi South 9.2 mph - N/A   Clear
9:55 PM 38.8 °F 33.8 °F 18.3 °F 44% 30.17 in 10.0 mi South 6.9 mph - N/A   Clear
10:15 PM 38.8 °F 32.1 °F 18.3 °F 44% 30.16 in 10.0 mi South 10.4 mph - N/A   Clear
10:35 PM 38.7 °F 33.6 °F 18.7 °F 45% 30.16 in 10.0 mi South 6.9 mph - N/A   Clear
10:55 PM 37.9 °F 32.1 °F 18.7 °F 46% 30.15 in 10.0 mi SSW 8.1 mph - N/A   Clear
11:15 PM 37.9 °F 32.1 °F 18.3 °F 45% 30.15 in 10.0 mi SSW 8.1 mph - N/A   Clear
11:35 PM 38.3 °F - 17.6 °F 43% 30.16 in 10.0 mi Calm Calm - N/A   Clear
11:55 PM 38.5 °F - 17.2 °F 42% 30.17 in 10.0 mi Calm Calm - N/A   Clear